Location: Burla
(50.9568°N, 10.4983°E)
Time: 14:23:14
(UTC+00:00)

SL-12 R/B(2) - Visible Passes

Search period start: 11 April 2026 00:00
Search period end: 21 April 2026 00:00
Orbit: 1169 x 2180 km, 63.4° (Epoch: 11 April)

Date Brightness Start Highest point End Pass type
(mag) Time Alt. Az. Time Alt. Az. Time Alt. Az.
11 Apr 5.0 19:29:51 10° NW 19:40:31 84° NE 19:50:30 19° SE visible
11 Apr 5.7 21:34:24 10° NW 21:44:24 41° WSW 21:50:26 26° SSW visible
12 Apr 5.0 19:28:31 10° NW 19:39:13 89° NE 19:49:35 17° SE visible
12 Apr 5.9 21:33:10 10° NW 21:42:56 37° WSW 21:49:31 23° SSW visible
13 Apr 5.1 19:27:09 10° NW 19:37:54 86° SW 19:48:44 16° SE visible
13 Apr 6.0 21:31:56 10° NW 21:41:27 34° WSW 21:48:40 19° SSW visible
14 Apr 5.1 19:25:49 10° NW 19:36:35 81° SW 19:47:55 14° SSE visible
14 Apr 6.2 21:30:45 10° NW 21:39:56 30° WSW 21:47:51 16° SSW visible
15 Apr 5.2 19:24:29 10° NW 19:35:15 76° SW 19:47:09 12° SSE visible
15 Apr 6.3 21:29:36 10° NW 21:38:25 27° WSW 21:47:05 12° SSW visible
16 Apr 5.3 19:23:09 10° NW 19:33:54 71° SW 19:46:19 10° SSE visible
16 Apr 6.4 21:28:31 10° WNW 21:36:52 25° WSW 21:45:56 10° SSW visible
17 Apr 5.4 19:21:49 10° NW 19:32:32 66° WSW 19:44:51 10° SSE visible
17 Apr 6.6 21:27:28 10° WNW 21:35:19 22° WSW 21:43:45 10° SW visible
18 Apr 5.5 19:20:30 10° NW 19:31:09 61° WSW 19:43:21 10° SSE visible
18 Apr 6.7 21:26:30 10° WNW 21:33:44 19° W 21:41:27 10° SW visible
19 Apr 5.6 19:19:10 10° NW 19:29:45 57° WSW 19:41:49 10° SSE visible
19 Apr 6.8 21:25:40 10° WNW 21:32:07 17° W 21:38:59 10° SW visible
20 Apr 5.7 19:17:52 10° NW 19:28:21 52° WSW 19:40:13 10° S visible
20 Apr 6.9 21:24:59 10° WNW 21:30:31 15° W 21:36:18 10° SW visible
